Location: Ergnies
(50.0854°N, 2.0375°E)
Time: 09:23:48
(UTC+00:00)

Cosmos 1328 - Visible Passes

Search period start: 10 April 2026 00:00
Search period end: 20 April 2026 00:00
Orbit: 454 x 470 km, 82.5° (Epoch: 10 April)

Date Brightness Start Highest point End Pass type
(mag) Time Alt. Az. Time Alt. Az. Time Alt. Az.
10 Apr 6.8 20:31:33 10° WNW 20:32:20 11° W 20:33:06 10° W visible
11 Apr 6.3 19:58:15 10° NW 20:00:47 19° W 20:03:19 10° SW visible
12 Apr 5.3 19:25:57 10° NNW 19:29:09 34° W 19:32:22 10° SSW visible
14 Apr 7.0 19:58:44 10° WNW 19:59:40 11° W 20:00:37 10° W visible
15 Apr 6.5 19:25:29 10° NW 19:28:05 19° W 19:30:40 10° SW visible
18 Apr 7.1 19:25:40 10° WNW 19:26:47 11° W 19:27:54 10° WSW visible
